When you browse on this site, cookies collect data to enhance your experience and personalize the content and advertising you see.
Visit our Privacy Policy to learn more. By continuing to use the site, you agree to this use of cookies and data.
  • In Schweiz
  • Länderverzeichnis
  • Für 7 Tage
  • Wassertemperatur
  • Satellitenkarten
  • Wetterkarte
  • Widgets
  • user-avatar
    Anmelden

    Stündliche Wetter Tusla

    Heute, 19 Mai, Sonntag

    Zeit Temperatur Niederschläge Wind Luftdruck Luftfeuchtigkeit
    00:00 +10°C° 0 mm 2 m/S 716 mmHg 95%
    01:00 +9°C° 0 mm 2 m/S 715 mmHg 95%
    02:00 +9°C° 0 mm 2 m/S 715 mmHg 94%
    03:00 +8°C° 0 mm 2 m/S 715 mmHg 94%
    04:00 +8°C° 0 mm 2 m/S 715 mmHg 93%
    05:00 +10°C° 0 mm 1 m/S 715 mmHg 90%
    06:00 +12°C° 0 mm 1 m/S 715 mmHg 86%
    07:00 +14°C° 0 mm 1 m/S 715 mmHg 82%
    08:00 +16°C° 0 mm 1 m/S 715 mmHg 70%
    09:00 +20°C° 0 mm 1 m/S 715 mmHg 58%
    10:00 +22°C° 0 mm 1 m/S 715 mmHg 46%
    11:00 +20°C° 0.2 mm 2 m/S 715 mmHg 55%
    12:00 +19°C° 0.2 mm 2 m/S 714 mmHg 64%
    13:00 +18°C° 0.2 mm 3 m/S 714 mmHg 74%
    14:00 +18°C° 0.1 mm 3 m/S 714 mmHg 71%
    15:00 +19°C° 0.1 mm 2 m/S 714 mmHg 69%
    16:00 +19°C° 0.1 mm 2 m/S 714 mmHg 67%
    17:00 +17°C° 0 mm 2 m/S 714 mmHg 72%
    18:00 +16°C° 0 mm 2 m/S 713 mmHg 78%
    19:00 +15°C° 0 mm 2 m/S 713 mmHg 83%
    20:00 +14°C° 0 mm 2 m/S 713 mmHg 85%
    21:00 +13°C° 0 mm 2 m/S 714 mmHg 88%
    22:00 +12°C° 0 mm 2 m/S 714 mmHg 90%
    23:00 +10°C° 0 mm 2 m/S 714 mmHg 91%

    Morgen, 20 Mai, Montag

    Zeit Temperatur Niederschläge Wind Luftdruck Luftfeuchtigkeit
    00:00 +10°C° 0 mm 2 m/S 714 mmHg 93%
    01:00 +9°C° 0 mm 2 m/S 715 mmHg 94%
    02:00 +9°C° 0 mm 2 m/S 715 mmHg 94%
    03:00 +9°C° 0 mm 2 m/S 715 mmHg 94%
    04:00 +9°C° 0 mm 2 m/S 715 mmHg 94%
    05:00 +10°C° 0 mm 2 m/S 715 mmHg 88%
    06:00 +13°C° 0 mm 2 m/S 715 mmHg 81%
    07:00 +14°C° 0 mm 3 m/S 716 mmHg 74%
    08:00 +16°C° 0 mm 3 m/S 716 mmHg 66%
    09:00 +18°C° 0 mm 3 m/S 716 mmHg 58%
    10:00 +19°C° 0 mm 3 m/S 717 mmHg 50%
    11:00 +19°C° 0.4 mm 3 m/S 717 mmHg 56%
    12:00 +19°C° 0.4 mm 3 m/S 717 mmHg 63%
    13:00 +18°C° 0.4 mm 3 m/S 717 mmHg 70%
    14:00 +18°C° 0.6 mm 3 m/S 717 mmHg 73%
    15:00 +17°C° 0.6 mm 2 m/S 717 mmHg 75%
    16:00 +17°C° 0.6 mm 2 m/S 716 mmHg 78%
    17:00 +15°C° 0.1 mm 2 m/S 716 mmHg 81%
    18:00 +14°C° 0.1 mm 2 m/S 716 mmHg 84%
    19:00 +13°C° 0.1 mm 2 m/S 716 mmHg 87%
    20:00 +12°C° 0 mm 2 m/S 717 mmHg 88%
    21:00 +10°C° 0 mm 2 m/S 717 mmHg 89%
    22:00 +10°C° 0 mm 2 m/S 717 mmHg 90%
    23:00 +9°C° 0 mm 3 m/S 717 mmHg 90%

    übermorgen, 21 Mai, Dienstag

    Zeit Temperatur Niederschläge Wind Luftdruck Luftfeuchtigkeit
    00:00 +9°C° 0 mm 3 m/S 717 mmHg 89%
    01:00 +8°C° 0 mm 3 m/S 717 mmHg 89%
    02:00 +8°C° 0 mm 3 m/S 717 mmHg 88%
    03:00 +8°C° 0 mm 2 m/S 717 mmHg 88%
    04:00 +7°C° 0 mm 2 m/S 717 mmHg 87%
    05:00 +9°C° 0 mm 2 m/S 717 mmHg 82%
    06:00 +12°C° 0 mm 2 m/S 718 mmHg 76%
    07:00 +13°C° 0 mm 3 m/S 718 mmHg 71%
    08:00 +16°C° 0 mm 3 m/S 718 mmHg 62%
    09:00 +18°C° 0 mm 3 m/S 718 mmHg 53%
    10:00 +20°C° 0 mm 3 m/S 718 mmHg 45%
    11:00 +19°C° 0.2 mm 2 m/S 718 mmHg 50%
    12:00 +19°C° 0.2 mm 2 m/S 718 mmHg 55%
    13:00 +19°C° 0.2 mm 2 m/S 718 mmHg 60%
    14:00 +18°C° 0.8 mm 2 m/S 718 mmHg 68%
    15:00 +18°C° 0.8 mm 2 m/S 718 mmHg 75%
    16:00 +17°C° 0.8 mm 2 m/S 718 mmHg 83%
    17:00 +16°C° 0.2 mm 2 m/S 719 mmHg 85%
    18:00 +15°C° 0.2 mm 2 m/S 719 mmHg 86%
    19:00 +13°C° 0.2 mm 1 m/S 719 mmHg 88%
    20:00 +13°C° 0 mm 2 m/S 719 mmHg 90%
    21:00 +12°C° 0 mm 2 m/S 720 mmHg 91%
    22:00 +10°C° 0 mm 2 m/S 720 mmHg 93%
    23:00 +10°C° 0 mm 2 m/S 720 mmHg 93%

    22 Mai, Mittwoch

    Zeit Temperatur Niederschläge Wind Luftdruck Luftfeuchtigkeit
    00:00 +10°C° 0 mm 2 m/S 720 mmHg 92%
    01:00 +10°C° 0 mm 3 m/S 720 mmHg 92%
    02:00 +10°C° 0 mm 2 m/S 720 mmHg 92%
    03:00 +9°C° 0 mm 2 m/S 720 mmHg 93%
    04:00 +9°C° 0 mm 2 m/S 720 mmHg 93%
    05:00 +10°C° 0 mm 2 m/S 720 mmHg 88%
    06:00 +13°C° 0 mm 2 m/S 720 mmHg 82%
    07:00 +15°C° 0 mm 2 m/S 721 mmHg 77%
    08:00 +17°C° 0 mm 2 m/S 721 mmHg 70%
    09:00 +19°C° 0 mm 2 m/S 721 mmHg 63%
    10:00 +22°C° 0 mm 1 m/S 722 mmHg 56%
    11:00 +22°C° 0.9 mm 1 m/S 721 mmHg 63%
    12:00 +21°C° 0.9 mm 1 m/S 721 mmHg 70%
    13:00 +21°C° 0.9 mm 1 m/S 721 mmHg 77%
    14:00 +20°C° 1.3 mm 1 m/S 721 mmHg 79%
    15:00 +20°C° 1.3 mm 1 m/S 721 mmHg 82%
    16:00 +20°C° 1.3 mm 1 m/S 720 mmHg 84%
    17:00 +19°C° 0.5 mm 1 m/S 720 mmHg 86%
    18:00 +18°C° 0.5 mm 1 m/S 720 mmHg 87%
    19:00 +15°C° 0.5 mm 1 m/S 720 mmHg 89%
    20:00 +15°C° 0.3 mm 1 m/S 721 mmHg 90%
    21:00 +14°C° 0.3 mm 1 m/S 721 mmHg 91%
    22:00 +13°C° 0.3 mm 1 m/S 721 mmHg 91%
    23:00 +13°C° 0 mm 1 m/S 721 mmHg 92%

    23 Mai, Donnerstag

    Zeit Temperatur Niederschläge Wind Luftdruck Luftfeuchtigkeit
    00:00 +12°C° 0 mm 1 m/S 721 mmHg 93%
    01:00 +11°C° 0 mm 1 m/S 721 mmHg 94%
    02:00 +11°C° 0.1 mm 1 m/S 721 mmHg 94%
    03:00 +11°C° 0.1 mm 1 m/S 721 mmHg 94%
    04:00 +10°C° 0.1 mm 1 m/S 721 mmHg 94%
    05:00 +12°C° 0 mm 1 m/S 721 mmHg 92%
    06:00 +13°C° 0 mm 1 m/S 721 mmHg 91%
    07:00 +14°C° 0 mm 0 m/S 722 mmHg 89%
    08:00 +15°C° 0.3 mm 1 m/S 722 mmHg 88%
    09:00 +16°C° 0.3 mm 1 m/S 722 mmHg 87%
    10:00 +17°C° 0.3 mm 2 m/S 721 mmHg 86%
    11:00 +18°C° 0.3 mm 2 m/S 721 mmHg 82%
    12:00 +18°C° 0.3 mm 2 m/S 721 mmHg 78%
    13:00 +19°C° 0.3 mm 2 m/S 721 mmHg 74%
    14:00 +19°C° 0.6 mm 2 m/S 720 mmHg 77%
    15:00 +19°C° 0.6 mm 2 m/S 720 mmHg 80%
    16:00 +18°C° 0.6 mm 2 m/S 720 mmHg 84%
    17:00 +17°C° 0.3 mm 2 m/S 720 mmHg 87%
    18:00 +16°C° 0.3 mm 1 m/S 720 mmHg 90%
    19:00 +14°C° 0.3 mm 0 m/S 719 mmHg 94%
    20:00 +14°C° 0.1 mm 1 m/S 720 mmHg 94%
    21:00 +13°C° 0.1 mm 1 m/S 720 mmHg 95%
    22:00 +13°C° 0.1 mm 1 m/S 720 mmHg 95%
    23:00 +12°C° 0 mm 1 m/S 720 mmHg 96%

    24 Mai, Freitag

    Zeit Temperatur Niederschläge Wind Luftdruck Luftfeuchtigkeit
    00:00 +12°C° 0 mm 1 m/S 719 mmHg 96%
    01:00 +12°C° 0 mm 1 m/S 719 mmHg 96%
    02:00 +12°C° 0 mm 1 m/S 719 mmHg 96%
    03:00 +12°C° 0 mm 1 m/S 719 mmHg 96%
    04:00 +12°C° 0 mm 1 m/S 719 mmHg 96%
    05:00 +13°C° 0 mm 1 m/S 719 mmHg 94%
    06:00 +15°C° 0 mm 1 m/S 719 mmHg 91%
    07:00 +15°C° 0 mm 0 m/S 719 mmHg 88%
    08:00 +19°C° 0 mm 1 m/S 719 mmHg 76%
    09:00 +21°C° 0 mm 1 m/S 719 mmHg 64%
    10:00 +23°C° 0 mm 1 m/S 719 mmHg 52%
    11:00 +23°C° 0 mm 1 m/S 719 mmHg 50%
    12:00 +24°C° 0 mm 2 m/S 718 mmHg 48%
    13:00 +24°C° 0 mm 2 m/S 718 mmHg 47%
    14:00 +24°C° 0 mm 2 m/S 717 mmHg 50%
    15:00 +23°C° 0 mm 2 m/S 717 mmHg 52%
    16:00 +23°C° 0 mm 2 m/S 716 mmHg 55%
    17:00 +20°C° 0.1 mm 2 m/S 716 mmHg 65%
    18:00 +19°C° 0.1 mm 1 m/S 716 mmHg 75%
    19:00 +16°C° 0.1 mm 1 m/S 716 mmHg 86%
    20:00 +15°C° 0 mm 1 m/S 716 mmHg 87%
    21:00 +14°C° 0 mm 1 m/S 716 mmHg 89%
    22:00 +13°C° 0 mm 1 m/S 716 mmHg 91%
    23:00 +13°C° 0 mm 1 m/S 716 mmHg 91%
    Mehr zeigen